星链-3356 (STARLINK-3356 )

导读

STARLINK-3356是美国太空探索技术公司星链计划的卫星,于2022年1月19日发射升空,属于星链星座组网的组成部分。星链计划旨在构建全球卫星互联网,该卫星承担为全球偏远地区等提供低延迟宽带网络服务的任务,助推全球互联覆盖的实现,也推动了低轨卫星星座发展。

Basic Information
目录编号:
51133
目录名称:
STARLINK-3356
国际标识:
2022-005AF
轨道中心:
EARTH
卫星名称:
星链-3356
卫星全名:
星链-3356 (STARLINK-3356 )
卫星状态:
在轨 (已飞行1610 天)
发射日期:
2022-01-19 UTC
国别 :
美国 (US)
星等 :
--
Orbit Information
数据来源 国际轨道数据 AOE轨道数据
星历时间 2026-06-17T16:33:06+0800
12小时前
查看轨道信息
2026-06-16T15:00:00+0800
1天前
查看轨道信息
半长轴 6917.911km 6917.905km
偏心率 0.0001043 0.0000983
轨道倾角 53.159° 53.159°
近地点辐角 77.334° 87.109°
升交点赤经 211.602° 216.388°
平近点角 282.777° 246.881°
近地点 539.052km 539.087km
远地点 540.496km 540.449km
周期 95.438分钟 95.438分钟
每日圈数 15.088301 15.088322
Detailed Information
固有亮度:
5
最大亮度:
2.5
卫星平台:
Starlink v1.5
覆盖范围:
全球
运营商:
太空探索技术公司
运营商所在国:
美国
制造商(研发单位):
太空探索技术公司
制造商所在国:
美国
使用方式:
暂无
Satellite Introduction
星链(Starlink)计划是由太空探索技术公司(SpaceX)提出的一个巨型低轨卫星互联网星座项目,计划在2019年至2024年间在太空搭建由约1.2万颗卫星组成的“星链”网络,其中1584颗将部署在地球上空550千米处的近地轨道,并从2020年开始工作。该卫星仍在工作。
2D Orbit Map
3D Orbit Map
Orbit Altitude Analysis Chart
Orbit Inclination Analysis Chart
Orbit Comprehensive Analysis Chart
View Comprehensive Chart